User: anonymous
Location: Unspecified
(0.0000°N, 0.0000°E)
Time: 18:06:00
(UTC+00:00)
Language:

USA 207 - Orbit

View from above orbital plane
View from above orbital plane
View from above satellite
View from above satellite

Ground track
Ground track

The orbit data is extracted from the following two-line orbital elements,

1 35815U 09047A   14182.16736821 0.00000000  00000-0  00000-0 0    05
2 35815   0.0717  26.9194 0003000 179.3969 180.6169  1.00270000    08
Epoch (UTC): 01 July 2014 04:01:00
Eccentricity: 0.0003000
inclination: 0.0717°
perigee height: 35774 km
apogee height: 35799 km
right ascension of ascending node: 26.9194°
argument of perigee: 179.3969°
revolutions per day: 1.00270000
mean anomaly at epoch: 180.6169°
orbit number at epoch: 0

The dashed part of the orbit path shows where the satellite is in the earth's shadow,  

DLR